Regional Weather Roundup
Issued by NWS

Home | Current Version | Previous Version | Graphics & Text | Print | Product List | Glossary On
Versions: 1 2 3 4 5 6 7 8 9 10 11 12 13 14 15 16 17 18 19 20 21 22 23 24 25 26 27 28 29 30 31 32 33 34 35 36 37 38 39 40 41 42 43 44 45 46 47 48 49 50
000
ASUS43 KMKX 050500
RWRWI

WISCONSIN REGIONAL WEATHER ROUNDUP
NATIONAL WEATHER SERVICE MILWAUKEE/SULLIVAN WI
1100 PM CST SUN DEC 04 2016

NOTE: "FAIR" INDICATES FEW OR NO CLOUDS BELOW 12,000 FEET WITH NO
SIGNIFICANT WEATHER AND/OR OBSTRUCTIONS TO VISIBILITY.

WIZ001-002-006>008-014>016-023>028-050600-
NORTHWEST WISCONSIN

CITY           SKY/WX    TMP DP  RH WIND       PRES   REMARKS
SUPERIOR ARPT  CLOUDY    34  33  96 W10       29.68R WCI  26
ASHLAND        CLOUDY    34  32  92 S8        29.68S WCI  27
HAYWARD        CLOUDY    34  30  85 SW8       29.70R WCI  27
SIREN          CLOUDY    34  31  88 SW9       29.72R WCI  27
CUMBERLAND     CLOUDY    32  30  93 SW9       29.73R WCI  24
RICE LAKE      CLOUDY    34  31  88 SW7       29.76R WCI  28
CHETEK         CLOUDY    34  31  90 W8G18     29.75R WCI  27
LADYSMITH      CLOUDY    34  33  97 SW9       29.74R WCI  26
EAU CLAIRE     CLOUDY    35  32  88 SW10      29.77R WCI  27
MENOMONIE      CLOUDY    35  35 100 SW8       29.78R WCI  28
NEW RICHMOND   CLOUDY    34  32  92 SW8       29.77R WCI  27
OSCEOLA        PTCLDY    34  31  88 SW7       29.78S WCI  28
$$

WIZ003>005-009-010-017-018-050600-
NORTH CENTRAL WISCONSIN

CITY           SKY/WX    TMP DP  RH WIND       PRES   REMARKS
MANITOWISH WTR MIX PCPN  30  30 100 SW7       29.67S WCI  23
ARBOR VITAE    CLOUDY    32  31  95 SW7       29.68R FOG     WCI  25
WOODRUFF       CLOUDY    32  31  95 SW7       29.68R FOG     WCI  25
RHINELANDER    CLOUDY    31  30  96 SW12      29.70R WCI  22
EAGLE RIVER    CLOUDY    29  29 100 SW5       29.68S FOG     WCI  24
LAND O LAKES   MIX PCPN  30  30 100 SW6       29.69S WCI  24
PHILLIPS       CLOUDY    31  31 100 SW8       29.69S FOG     WCI  24
TOMAHAWK       RAIN      30  29  95 CALM      29.71S
MEDFORD        CLOUDY    31  30  95 SW7       29.72R WCI  25
MERRILL        LGT SNOW  31  31 100 SW5       29.73S WCI  26
$$

WIZ029-030-035-036-043>047-050600-
CENTRAL WISCONSIN

CITY           SKY/WX    TMP DP  RH WIND       PRES   REMARKS
WAUSAU         CLOUDY    31  30  96 SW10      29.74R WCI  22
MOSINEE        CLOUDY    32  32 100 SW8       29.76R FOG     WCI  25
MARSHFIELD     CLOUDY    32  30  92 W13       29.75R WCI  22
STEVENS POINT  CLOUDY    30  30 100 SW9       29.78R WCI  22
WAUPACA        CLOUDY    33  31  94 CALM      29.80R
WAUTOMA        CLOUDY    30  29  96 S6        29.81S WCI  24
WISC RAPIDS    CLOUDY    32  31  96 SW8       29.79S WCI  25
CAMP DOUGLAS   MOCLDY    32  32 100 SW10      29.81R WCI  24
$$

WIZ011>013-019>022-031-037>040-048>050-050600-
NORTHEAST WISCONSIN

CITY           SKY/WX    TMP DP  RH WIND       PRES   REMARKS
ANTIGO         CLOUDY    29  29 100 SW9       29.73R WCI  21
SHAWANO        CLOUDY    33  31  93 SW5       29.77S WCI  28
OCONTO         CLOUDY    32  30  94 SW5       29.78S WCI  27
STURGEON BAY   CLOUDY    32  30  92 W9        29.78S WCI  24
GREEN BAY      CLOUDY    33  32  96 SW9       29.80S WCI  25
MANITOWOC      NOT AVBL
APPLETON       CLOUDY    30  30 100 SW8       29.78F WCI  23
CLINTONVILLE   CLOUDY    32  30  93 SW8       29.79R WCI  25
OSHKOSH        CLOUDY    32  29  88 SW9       29.81S WCI  24
$$

WIZ032>034-041-042-053>061-050600-
SOUTHWEST WISCONSIN

CITY           SKY/WX    TMP DP  RH WIND       PRES   REMARKS
LA CROSSE      CLOUDY    37  33  85 SW12      29.84R WCI  29
SPARTA         CLOUDY    33  32  97 SW5       29.83R WCI  28
VIROQUA        CLOUDY    32  32 100 W18G28    29.84R WCI  21
BOSCOBEL       CLOUDY    35  31  85 SW6       29.90R WCI  30
PRAIRIE DU CHI CLOUDY    33  31  90 SW8       29.90R WCI  27
PLATTEVILLE    CLOUDY    32  32 100 SW12      29.90R WCI  23
$$

WIZ056-057-062-063-064-067-068-050600-
SOUTH CENTRAL WISCONSIN

CITY           SKY/WX    TMP DP  RH WIND       PRES   REMARKS
REEDSBURG      CLOUDY    32  32  99 SW8       29.85R WCI  25
BARABOO/DELLS  CLOUDY    32  31  96 W10       29.82S WCI  24
LONE ROCK      NOT AVBL
MINERAL POINT  CLOUDY    34  34 100 SW8       29.88R WCI  27
MADISON        CLOUDY    33  30  88 VRB5      29.87R WCI  29
MIDDLETON      CLOUDY    34  33  96 SW7       29.86R WCI  28
WATERTOWN      CLOUDY    31  31 100 SW6       29.86R WCI  26
MONROE         CLOUDY    32  32 100 W15       29.88R WCI  22
JANESVILLE     CLOUDY    34  32  93 W8        29.89R WCI  27
$$

WIZ051-052-058>065-066-070>072-050600-
SOUTHEAST WISCONSIN

CITY           SKY/WX    TMP DP  RH WIND       PRES   REMARKS
MILWAUKEE      CLOUDY    34  30  85 W9        29.86R FOG     WCI  27
WAUKESHA       CLOUDY    30  30 100 W9        29.86R FOG     WCI  22
MILWAUKEE/TIMM CLOUDY    32  30  93 W7        29.86S FOG     WCI  26
RACINE         CLOUDY    32  29  88 SW7       29.88R FOG     WCI  26
BURLINGTON     CLOUDY    32  31  97 W5        29.88R WCI  27
KENOSHA        CLOUDY    32  30  92 W9        29.88R FOG     WCI  24
FOND DU LAC    CLOUDY    32  28  85 SW8       29.83S WCI  25
SHEBOYGAN      CLOUDY    32  29  88 SW12      29.83R WCI  23
WEST BEND      MIX PCPN  32  32 100 W12       29.84R WCI  23
JUNEAU         MIX PCPN  31  30  95 SW8       29.86R WCI  24
$$

LSZ147-162-050600-
LAKE SUPERIOR

STATION/POSITION TIME  TEMP    WIND        PRES    WAVE
                       AIR SEA DIR/SP/G            HT/PER
                 (UTC) (F)     (DEG/KT/KT) (MB)    (FT/S)
DEVILS ISLAND    0400   34     200/  9/ 12 1004.9F
PORT WING        0430   34     190/  6/ 10 1004.7S
SAXON HARBOR     0440   35     200/  6/ 10 1005.1S
$$

LMZ867-665-643>646-050600-
LAKE MICHIGAN

STATION/POSITION TIME  TEMP    WIND        PRES    WAVE
                       AIR SEA DIR/SP/G            HT/PER
                 (UTC) (F)     (DEG/KT/KT) (MB)    (FT/S)
CHAMBERS ISLAND  0440   34     210/  9/ 14 1007.8S
NORTHPORT PIER   0440   33      CALM  /  4 1007.8F
SISTER BAY       0408   33     200/  8/ 12   N/A
ALGOMA LAKESHORE 0451          260/  7/ 13   N/A
KEWAUNEE LAKESHO 0430   33     260/  8/ 11 1008.7R
SHEBOYGAN LAKESH 0400   33     250/ 10/ 13 1010.4R
PORT WASHINGTON  0430   33     260/  6/ 10 1011.9R
MILWAUKEE LAKESH 0430   33     270/ 12/ 14   N/A
KENOSHA   LAKESH 0400   31     240/  7/  8 1011.5
$$

TC  - TEMPERATURE IN CELSIUS
VSB - VISIBILITY IN STATUTE MILES
WCI - WIND CHILL INDEX
HX  - HEAT INDEX




USA.gov is the U.S. government's official web portal to all federal, state and local government web resources and services.